Location: Boiro
(42.6475°N, 8.8834°W)
Time: 08:02:58
(UTC+01:00)

SR - Pass Details

Date: 05 December 2021
Orbit: 583 x 872 km, 66.7° (Epoch: 16 January)

Event Time Altitude Azimuth Distance (km) Brightness Sun altitude
Rises 22:55:30 0° 157° (SSE) 3,009 - -52.8°
Reaches altitude 10° 22:59:40 10° 121° (ESE) 2,029 - -53.5°
Maximum altitude 23:00:51 11° 106° (ESE) 1,951 - -53.7°
Drops below altitude 10° 23:02:01 10° 91° (E) 1,996 - -53.9°
Sets 23:05:58 0° 55° (NE) 2,856 - -54.6°
